Showing default

COSMOS 382, 4786

Orbit data source: Space-Track

COSMOS 382, 4786 is a payload satellite owned by TsKBEM (CIS) in LEO that was launched on Wed, 02 Dec 1970 UTC via a PROTON-K/D launch vehicle from the Tyuratam Missile And Space Complex (TTMTR). Payload-class satellites include a variety of spacecraft equipped with specific instruments for various scientific and technological missions. These include communications satellites like Starlink; space stations such as the ISS; scientific satellites like the Hubble; Earth observation satellites from companies like Planet Labs, Umbra, and HawkEye 360; GPS; miniature CubeSats for education and research; and military/defense satellites.

Loading next visibility...
Identifier
4786, 1970-103A
Orbit
LEO
Country
Flag of CISCIS
Related business
Manufacturer
TsKBEM
Mission
Spacecraft
Bus & Motor
7K-L1E, Unknown motor
Mass
~19,040 kg wet, ~2,800 kg dry
Launch date (UTC)
1970-12-02 (55 years ago)
Launch vehicle
PROTON-K/D
Launch site
Tyuratam Missile And Space Complex (TTMTR)
Object type
Payload
Rocket body
Debris
Shape & HBR
Unknown
Radar Cross Section
Large (>1 m²)

Expand to show TLE details & history
Last TLE update: 10 hours ago

TLE from 10 hours ago
0 COSMOS 382
1 04786U 70103A   25346.87925721 -.00000022  00000-0  00000-0 0  9992
2 04786  55.8613 145.6553 1360151 234.1392 295.3372  8.42042053692876
Epoch: 2025-12-12T21:06Z
TLE epoch observation values (Epoch: 2025-12-12T21:06:07.822Z)
Latitude
20.93521°
Longitude
-87.66382°
Altitude
3,401.1 km
Speed
6.519 km/s
True Right ascension
20h 42m 43s
True Declination
20° 51' 06"
Sunlit
Object was in daylight at epoch
Visualization orbit readout
Latitude
Unknown
Longitude
Unknown
Altitude
Unknown
Speed
Unknown
Apparent Right ascension
Unknown
Apparent Declination
Unknown
Sunlit
N/A
Visualization observer readout
Local Sidereal Time
05:22:32
Azimuth
Unknown
Elevation
Unknown
Doppler factor
Unknown
Orbital elements
Apogee altitude
5,215.645 km
Perigee altitude
2,439.398 km
Semi-major axis
10,205.659 km
Eccentricity
0.13602
Inclination
55.8613°
RAAN
145.6553°
Arg. of periapsis
234.1392°
True anomaly
280.32389°
Mean anomaly
295.3372°
Eccentric anomaly
287.92227°
Mean motion
2.10514 °/min
Orbital period
171.01 mins
BSTAR
0
Loading maneuver chart data...
Computing Atmospheric mass density...
Loading historical data...
Loading historical data...
Loading historical data...
Loading historical data...
Loading historical data...
Loading historical data...
Loading historical data...

Documentation

Showing up to 5 results
|